Hourly Data Report for September 05, 2016

All times are specified in Local Standard Time (LST). Add 1 hour to adjust for Daylight Saving Time where and when it is observed.

CHARLOTTETOWN A
PRINCE EDWARD ISLAND

46°17'21.000" N
63°07'09.000" W
48.50 m
8300301
71706
YYG

Download Data

Hourly Data (September 2016)
Hourly Data Report for September 5, 2016
Temp Definition
°C
Dew Point Temp Definition
°C
Rel Hum Definition
%
Wind Dir Definition
10's deg

Wind Spd Definition
km/h
Visibility Definition
km
Stn Press Definition
kPa
Hmdx Definition


Wind Chill Definition


Weather Definition


TIME
00:00 Legend Double Dagger 14.9 10.8 76 21 17 24.1 102.10     LegendNANA
01:00 Legend Double Dagger 14.7 11.0 78 21 16 24.1 102.11     LegendNANA
02:00 Legend Double Dagger 14.8 11.2 79 22 16 24.1 102.07     Clear
03:00 Legend Double Dagger 14.3 11.3 82 21 14 24.1 102.07     LegendNANA
04:00 Legend Double Dagger 14.0 10.8 81 22 14 24.1 102.08     LegendNANA
05:00 Legend Double Dagger 14.1 10.9 81 22 16 24.1 102.12     Mainly Clear
06:00 Legend Double Dagger 14.2 11.7 85 22 16 24.1 102.16     LegendNANA
07:00 Legend Double Dagger 15.4 12.0 80 22 15 24.1 102.17     LegendNANA
08:00 Legend Double Dagger 16.6 12.2 75 22 22 24.1 102.14     Mainly Clear
09:00 Legend Double Dagger 17.9 11.5 66 23 19 24.1 102.10     LegendNANA
10:00 Legend Double Dagger 18.5 12.1 66 21 24 24.1 102.10     LegendNANA
11:00 Legend Double Dagger 19.4 11.8 61 21 22 22.5 102.07     Mainly Clear
12:00 Legend Double Dagger 19.9 12.5 62 19 22 24.1 102.03     LegendNANA
13:00 Legend Double Dagger 20.3 11.4 56 20 23 24.1 101.99     LegendNANA
14:00 Legend Double Dagger 21.1 12.9 59 18 25 24.1 101.94     Mainly Clear
15:00 Legend Double Dagger 21.1 11.3 53 20 18 24.1 101.91     LegendNANA
16:00 Legend Double Dagger 21.9 12.6 55 19 17 24.1 101.84     LegendNANA
17:00 Legend Double Dagger 21.1 12.1 56 20 15 24.1 101.81     Mostly Cloudy
18:00 Legend Double Dagger 19.2 13.0 67 18 13 24.1 101.81     LegendNANA
19:00 Legend Double Dagger 18.5 13.2 71 20 15 24.1 101.80     LegendNANA
20:00 Legend Double Dagger 17.4 13.4 77 20 10 24.1 101.82     Mainly Clear
21:00 Legend Double Dagger 16.5 12.3 76 19 17 24.1 101.81     LegendNANA
22:00 Legend Double Dagger 17.3 14.1 81 20 20 24.1 101.77     LegendNANA
23:00 Legend Double Dagger 16.1 14.0 87 20 10 24.1 101.79     Mainly Clear

Notes on Data Quality.

Legend

  • E = Estimated
  • M = Missing
  • NA = Not Available
  • ‡ = Partner data that is not subject to review by the National Climate Archives
Date modified: